• In Russia
  • List of Countries
  • For 7 days
  • Water Temperature
  • Satellite Maps
  • Weather Map
  • Weather Widgets
  • user-avatar
    Login

    Hourly Weather Muya

    Today, 24 February, Sunday

    Time Temperature Precipitation Wind Pressure Humidity
    00:00 -15°C° 0 mm 2 mps 718 mmHg 85%
    01:00 -14°C° 0 mm 1 mps 718 mmHg 85%
    02:00 -14°C° 0 mm 1 mps 718 mmHg 86%
    03:00 -15°C° 0 mm 1 mps 718 mmHg 86%
    04:00 -15°C° 0 mm 1 mps 718 mmHg 86%
    05:00 -15°C° 0 mm 1 mps 718 mmHg 86%
    06:00 -15°C° 0 mm 1 mps 718 mmHg 86%
    07:00 -15°C° 0 mm 1 mps 718 mmHg 86%
    08:00 -16°C° 0 mm 1 mps 718 mmHg 86%
    09:00 -14°C° 0 mm 1 mps 718 mmHg 81%
    10:00 -12°C° 0 mm 1 mps 717 mmHg 77%
    11:00 -10°C° 0 mm 1 mps 717 mmHg 73%
    12:00 -9°C° 0 mm 1 mps 717 mmHg 71%
    13:00 -9°C° 0 mm 1 mps 716 mmHg 70%
    14:00 -8°C° 0 mm 1 mps 716 mmHg 69%
    15:00 -9°C° 0 mm 1 mps 715 mmHg 74%
    16:00 -9°C° 0 mm 1 mps 715 mmHg 80%
    17:00 -10°C° 0 mm 1 mps 715 mmHg 85%
    18:00 -11°C° 0.1 mm 1 mps 715 mmHg 86%
    19:00 -12°C° 0.1 mm 1 mps 715 mmHg 88%
    20:00 -12°C° 0.1 mm 1 mps 714 mmHg 89%
    21:00 -12°C° 0.1 mm 1 mps 714 mmHg 89%
    22:00 -12°C° 0.1 mm 1 mps 714 mmHg 89%
    23:00 -12°C° 0.1 mm 1 mps 714 mmHg 89%

    Tomorrow, 25 February, Monday

    Time Temperature Precipitation Wind Pressure Humidity
    00:00 -12°C° 0.1 mm 1 mps 714 mmHg 89%
    01:00 -12°C° 0.1 mm 1 mps 715 mmHg 90%
    02:00 -12°C° 0.1 mm 1 mps 715 mmHg 90%
    03:00 -12°C° 0 mm 1 mps 715 mmHg 89%
    04:00 -13°C° 0 mm 1 mps 715 mmHg 88%
    05:00 -13°C° 0 mm 1 mps 715 mmHg 88%
    06:00 -13°C° 0 mm 1 mps 715 mmHg 87%
    07:00 -12°C° 0 mm 1 mps 716 mmHg 87%
    08:00 -12°C° 0 mm 1 mps 716 mmHg 86%
    09:00 -10°C° 0 mm 1 mps 716 mmHg 82%
    10:00 -9°C° 0 mm 1 mps 716 mmHg 78%
    11:00 -7°C° 0 mm 1 mps 716 mmHg 74%
    12:00 -6°C° 0 mm 1 mps 716 mmHg 73%
    13:00 -4°C° 0 mm 1 mps 715 mmHg 72%
    14:00 -3°C° 0 mm 1 mps 715 mmHg 71%
    15:00 -4°C° 0 mm 1 mps 715 mmHg 76%
    16:00 -7°C° 0 mm 2 mps 715 mmHg 81%
    17:00 -8°C° 0 mm 2 mps 715 mmHg 86%
    18:00 -8°C° 0 mm 2 mps 715 mmHg 86%
    19:00 -9°C° 0 mm 2 mps 715 mmHg 87%
    20:00 -9°C° 0 mm 1 mps 715 mmHg 87%
    21:00 -10°C° 0 mm 1 mps 715 mmHg 87%
    22:00 -10°C° 0 mm 1 mps 714 mmHg 86%
    23:00 -11°C° 0 mm 1 mps 714 mmHg 85%

    Day after tomorrow, 26 February, Tuesday

    Time Temperature Precipitation Wind Pressure Humidity
    00:00 -11°C° 0 mm 1 mps 714 mmHg 85%
    01:00 -11°C° 0 mm 1 mps 714 mmHg 84%
    02:00 -11°C° 0 mm 1 mps 714 mmHg 84%
    03:00 -11°C° 0 mm 1 mps 714 mmHg 84%
    04:00 -11°C° 0 mm 1 mps 714 mmHg 83%
    05:00 -11°C° 0 mm 1 mps 713 mmHg 83%
    06:00 -11°C° 0 mm 1 mps 714 mmHg 83%
    07:00 -11°C° 0 mm 1 mps 714 mmHg 83%
    08:00 -11°C° 0 mm 1 mps 714 mmHg 83%
    09:00 -9°C° 0 mm 1 mps 714 mmHg 79%
    10:00 -7°C° 0 mm 0 mps 715 mmHg 74%
    11:00 -5°C° 0 mm 0 mps 715 mmHg 70%
    12:00 -4°C° 0 mm 0 mps 715 mmHg 68%
    13:00 -3°C° 0 mm 1 mps 715 mmHg 67%
    14:00 -2°C° 0 mm 1 mps 714 mmHg 66%
    15:00 -3°C° 0 mm 1 mps 714 mmHg 70%
    16:00 -4°C° 0 mm 1 mps 714 mmHg 75%
    17:00 -6°C° 0 mm 0 mps 714 mmHg 79%
    18:00 -8°C° 0 mm 1 mps 714 mmHg 81%
    19:00 -9°C° 0 mm 1 mps 715 mmHg 82%
    20:00 -10°C° 0 mm 1 mps 715 mmHg 83%
    21:00 -11°C° 0 mm 1 mps 715 mmHg 83%
    22:00 -11°C° 0 mm 1 mps 715 mmHg 83%
    23:00 -12°C° 0 mm 1 mps 716 mmHg 84%

    27 February, Wednesday

    Time Temperature Precipitation Wind Pressure Humidity
    00:00 -12°C° 0 mm 1 mps 716 mmHg 84%
    01:00 -13°C° 0 mm 1 mps 716 mmHg 84%
    02:00 -13°C° 0 mm 1 mps 716 mmHg 84%
    03:00 -14°C° 0 mm 1 mps 716 mmHg 84%
    04:00 -14°C° 0 mm 1 mps 716 mmHg 84%
    05:00 -14°C° 0 mm 1 mps 715 mmHg 84%
    06:00 -14°C° 0 mm 1 mps 715 mmHg 84%
    07:00 -14°C° 0 mm 1 mps 715 mmHg 84%
    08:00 -14°C° 0 mm 1 mps 715 mmHg 84%
    09:00 -12°C° 0 mm 1 mps 715 mmHg 80%
    10:00 -10°C° 0 mm 1 mps 715 mmHg 76%
    11:00 -8°C° 0 mm 1 mps 714 mmHg 71%
    12:00 -8°C° 0 mm 1 mps 714 mmHg 70%
    13:00 -7°C° 0 mm 1 mps 714 mmHg 68%
    14:00 -6°C° 0 mm 1 mps 713 mmHg 67%
    15:00 -7°C° 0 mm 1 mps 713 mmHg 72%
    16:00 -8°C° 0 mm 1 mps 713 mmHg 76%
    17:00 -8°C° 0 mm 1 mps 713 mmHg 81%
    18:00 -10°C° 0 mm 1 mps 713 mmHg 83%
    19:00 -11°C° 0 mm 1 mps 713 mmHg 84%
    20:00 -12°C° 0 mm 1 mps 713 mmHg 86%
    21:00 -12°C° 0 mm 1 mps 713 mmHg 86%
    22:00 -12°C° 0 mm 0 mps 713 mmHg 85%
    23:00 -13°C° 0 mm 0 mps 713 mmHg 85%

    28 February, Thursday

    Time Temperature Precipitation Wind Pressure Humidity
    00:00 -13°C° 0 mm 0 mps 713 mmHg 85%
    01:00 -13°C° 0 mm 0 mps 713 mmHg 85%
    02:00 -13°C° 0 mm 0 mps 713 mmHg 86%
    03:00 -14°C° 0 mm 0 mps 713 mmHg 86%
    04:00 -14°C° 0 mm 0 mps 713 mmHg 86%
    05:00 -15°C° 0 mm 1 mps 713 mmHg 86%
    06:00 -15°C° 0 mm 1 mps 713 mmHg 86%
    07:00 -15°C° 0 mm 1 mps 713 mmHg 85%
    08:00 -15°C° 0 mm 1 mps 713 mmHg 85%
    09:00 -13°C° 0 mm 1 mps 713 mmHg 81%
    10:00 -11°C° 0 mm 0 mps 713 mmHg 76%
    11:00 -8°C° 0 mm 0 mps 713 mmHg 72%
    12:00 -8°C° 0 mm 0 mps 713 mmHg 70%
    13:00 -7°C° 0 mm 1 mps 713 mmHg 68%
    14:00 -6°C° 0 mm 1 mps 712 mmHg 67%
    15:00 -7°C° 0 mm 1 mps 712 mmHg 71%
    16:00 -8°C° 0 mm 1 mps 712 mmHg 76%
    17:00 -9°C° 0 mm 0 mps 712 mmHg 81%
    18:00 -10°C° 0 mm 1 mps 713 mmHg 82%
    19:00 -12°C° 0 mm 1 mps 714 mmHg 84%
    20:00 -13°C° 0 mm 1 mps 714 mmHg 85%
    21:00 -14°C° 0 mm 1 mps 714 mmHg 85%
    22:00 -14°C° 0 mm 1 mps 715 mmHg 84%
    23:00 -14°C° 0 mm 1 mps 715 mmHg 84%

    1 March, Friday

    Time Temperature Precipitation Wind Pressure Humidity
    00:00 -15°C° 0 mm 1 mps 715 mmHg 84%
    01:00 -15°C° 0 mm 1 mps 715 mmHg 83%
    02:00 -15°C° 0 mm 1 mps 716 mmHg 83%
    03:00 -15°C° 0 mm 1 mps 716 mmHg 83%
    04:00 -15°C° 0 mm 1 mps 716 mmHg 82%
    05:00 -16°C° 0 mm 1 mps 716 mmHg 82%
    06:00 -15°C° 0 mm 1 mps 716 mmHg 81%
    07:00 -15°C° 0 mm 1 mps 717 mmHg 80%
    08:00 -15°C° 0 mm 1 mps 717 mmHg 80%
    09:00 -13°C° 0 mm 1 mps 717 mmHg 75%
    10:00 -10°C° 0 mm 0 mps 717 mmHg 70%
    11:00 -8°C° 0 mm 0 mps 717 mmHg 66%
    12:00 -7°C° 0 mm 0 mps 717 mmHg 65%
    13:00 -6°C° 0 mm 0 mps 717 mmHg 64%
    14:00 -4°C° 0 mm 1 mps 716 mmHg 63%
    15:00 -6°C° 0 mm 1 mps 716 mmHg 68%
    16:00 -7°C° 0 mm 1 mps 717 mmHg 73%
    17:00 -8°C° 0 mm 1 mps 717 mmHg 78%
    18:00 -9°C° 0 mm 1 mps 717 mmHg 79%
    19:00 -10°C° 0 mm 1 mps 717 mmHg 80%
    20:00 -12°C° 0 mm 1 mps 718 mmHg 82%
    21:00 -12°C° 0 mm 1 mps 718 mmHg 82%
    22:00 -12°C° 0 mm 1 mps 718 mmHg 81%
    23:00 -12°C° 0 mm 1 mps 718 mmHg 81%
    Show more